Location: Pl�tzky
(52.0521°N, 11.8020°E)
Time: 14:09:19
(UTC+00:00)

USA 229 - Pass Details

Date: 28 February 2020
Orbit: 986 x 1226 km, 63.4° (Epoch: 26 March)

Event Time Altitude Azimuth Distance (km) Brightness Sun altitude
Rises 22:08:49 0° 308° (NW) 3,879 7.3 -43.1°
Reaches altitude 10° 22:11:33 10° 314° (NW) 2,956 6.6 -43.3°
Enters shadow 22:15:21 32° 334° (NNW) 1,841 5.2 -43.6°
